Location: Landeleau
(48.2273°N, 3.7285°W)
Time: 12:25:00
(UTC+00:00)

STARLINK-1202 - Pass Details

Date: 30 March 2020
Orbit: 549 x 550 km, 53.0° (Epoch: 28 May)

Event Time Altitude Azimuth Distance (km) Brightness Sun altitude
Rises 19:46:49 0° 240° (WSW) 2,712 7.8 -11.2°
Reaches altitude 10° 19:49:03 10° 240° (WSW) 1,821 6.9 -11.5°
Maximum altitude 19:53:12 85° 152° (SSE) 558 3.6 -12.2°
Drops below altitude 10° 19:57:21 10° 64° (ENE) 1,829 5.9 -12.8°
Enters shadow 19:57:23 10° 64° (ENE) 1,837 5.9 -12.8°
